Home   Weather   Germany   Munich   Past weeks
Flag for Germany

Past Weather in Munich, Bavaria, Germany — July 2023

Currently: 45 °F. Scattered clouds. (Weather station: Oberpfaffenhofen, Germany). See more current weather

July 2023 Weather in Munich — Graph

°F

High & Low Weather Summary for July 2023

 TemperatureHumidityPressure
High95 °F (Jul 11, 4:50 pm)100% (Jul 1, 12:50 am)30.27 "Hg (Jul 1, 12:50 am)
Low46 °F (Jul 27, 3:20 am)19% (Jul 11, 6:20 pm)29.71 "Hg (Jul 25, 7:50 am)
Average68 °F67%30.02 "Hg
* Reported Jul 1 12:20 am — Jul 31 11:50 pm, Munich. Weather by CustomWeather, © 2024

Note: Actual official high and low records may vary slightly from our data, if they occured in-between our weather recording intervals... More about our weather records

Munich Weather History for July 1, 2023

Scroll right to see more
 ConditionsComfort  
Time TempWeatherWind HumidityBarometerVisibility
12:20 am
Sat, Jul 1
63 °FMostly cloudy.7 mph94%29.92 "HgN/A
12:50 am61 °FMostly cloudy.7 mph100%29.92 "HgN/A
1:20 am61 °FMostly cloudy.7 mph94%29.92 "Hg6 mi
2:50 am61 °FMostly cloudy.9 mph94%29.92 "Hg4 mi
3:20 am61 °FOvercast.7 mph94%29.92 "Hg4 mi
4:20 am59 °FOvercast.10 mph94%29.92 "Hg4 mi
4:50 am57 °FLow clouds.8 mph100%29.92 "Hg3 mi
5:20 am57 °FLow clouds.8 mph100%29.92 "Hg2 mi
5:50 am57 °FCloudy.6 mph100%29.92 "Hg2 mi
6:20 am57 °FMostly cloudy.6 mph100%29.92 "Hg2 mi
6:50 am59 °FOvercast.9 mph94%29.92 "HgN/A
7:20 am59 °FLow clouds.10 mph94%29.92 "HgN/A
7:50 am59 °FOvercast.8 mph94%29.92 "HgN/A
8:20 am59 °FOvercast.8 mph94%29.92 "HgN/A
8:50 am61 °FPassing clouds.8 mph88%29.92 "HgN/A
9:20 am63 °FPassing clouds.9 mph83%29.92 "HgN/A
9:50 am63 °FScattered clouds.9 mph83%29.92 "HgN/A
10:20 am64 °FPassing clouds.7 mph68%29.92 "HgN/A
10:50 am64 °FScattered clouds.8 mph68%29.92 "HgN/A
11:20 am66 °FScattered clouds.8 mph64%29.92 "HgN/A
11:50 am64 °FScattered clouds.9 mph68%29.92 "HgN/A
12:20 pm66 °FPassing clouds.9 mph68%29.92 "HgN/A
12:50 pm66 °FScattered clouds.10 mph64%29.89 "HgN/A
1:20 pm66 °FPartly sunny.8 mph60%29.89 "HgN/A
1:50 pm68 °FPassing clouds.8 mph64%29.89 "HgN/A
2:20 pm68 °FPassing clouds.9 mph56%29.89 "HgN/A
2:50 pm70 °FPassing clouds.10 mph57%29.86 "HgN/A
3:20 pm72 °FScattered clouds.8 mph53%29.86 "HgN/A
3:50 pm73 °FPartly sunny.12 mph53%29.86 "HgN/A
4:20 pm72 °FPassing clouds.10 mph50%29.83 "HgN/A
4:50 pm73 °FPassing clouds.13 mph47%29.83 "HgN/A
5:20 pm72 °FScattered clouds.14 mph44%29.83 "HgN/A
5:50 pm72 °FScattered clouds.14 mph44%29.83 "HgN/A
6:20 pm73 °FPassing clouds.13 mph41%29.83 "HgN/A
6:50 pm72 °FScattered clouds.13 mph47%29.83 "HgN/A
7:20 pm70 °FMostly cloudy.10 mph50%29.83 "HgN/A
7:50 pm70 °FBroken clouds.13 mph53%29.83 "HgN/A
8:20 pm68 °FOvercast.9 mph56%29.83 "HgN/A
8:50 pm68 °FOvercast.9 mph56%29.83 "HgN/A
9:20 pm68 °FOvercast.9 mph56%29.86 "HgN/A
9:50 pm66 °FOvercast.14 mph64%29.86 "HgN/A
10:20 pm66 °FOvercast.13 mph64%29.86 "HgN/A
11:20 pm64 °FMostly cloudy.17 mph68%29.89 "HgN/A
Weather by CustomWeather, © 2024

See weather overview